When you browse on this site, cookies collect data to enhance your experience and personalize the content and advertising you see.
Visit our Privacy Policy to learn more. By continuing to use the site, you agree to this use of cookies and data.
  • In United Kingdom
  • List of Countries
  • For 7 days
  • Water Temperature
  • Satellite Maps
  • Weather Map
  • Weather Widgets
  • user-avatar
    Login

    Hourly Weather Ibagué

    Today, 21 April, Sunday

    Time Temperature Precipitation Wind Pressure Humidity
    00:00 +19°C° 0.4 mm 0 mps 649 mmHg 79%
    01:00 +19°C° 0.4 mm 0 mps 649 mmHg 79%
    02:00 +19°C° 0.5 mm 0 mps 649 mmHg 79%
    03:00 +19°C° 0.5 mm 0 mps 649 mmHg 79%
    04:00 +18°C° 0.5 mm 0 mps 648 mmHg 79%
    05:00 +19°C° 0.3 mm 0 mps 649 mmHg 77%
    06:00 +19°C° 0.3 mm 0 mps 649 mmHg 76%
    07:00 +19°C° 0.3 mm 0 mps 649 mmHg 74%
    08:00 +23°C° 0.3 mm 1 mps 650 mmHg 70%
    09:00 +24°C° 0.3 mm 1 mps 651 mmHg 65%
    10:00 +25°C° 0.3 mm 1 mps 651 mmHg 61%
    11:00 +26°C° 0.6 mm 1 mps 651 mmHg 60%
    12:00 +26°C° 0.6 mm 1 mps 650 mmHg 59%
    13:00 +27°C° 0.6 mm 1 mps 650 mmHg 59%
    14:00 +27°C° 0.7 mm 1 mps 649 mmHg 61%
    15:00 +26°C° 0.7 mm 1 mps 648 mmHg 62%
    16:00 +26°C° 0.7 mm 1 mps 648 mmHg 64%
    17:00 +25°C° 0.7 mm 1 mps 648 mmHg 68%
    18:00 +24°C° 0.7 mm 1 mps 648 mmHg 72%
    19:00 +22°C° 0.7 mm 1 mps 648 mmHg 77%
    20:00 +22°C° 0.8 mm 1 mps 649 mmHg 77%
    21:00 +22°C° 0.8 mm 1 mps 649 mmHg 77%
    22:00 +22°C° 0.8 mm 1 mps 650 mmHg 78%
    23:00 +22°C° 1.2 mm 1 mps 649 mmHg 78%

    Tomorrow, 22 April, Monday

    Time Temperature Precipitation Wind Pressure Humidity
    00:00 +21°C° 1.2 mm 1 mps 649 mmHg 79%
    01:00 +21°C° 1.2 mm 1 mps 649 mmHg 79%
    02:00 +21°C° 1 mm 1 mps 649 mmHg 80%
    03:00 +21°C° 1 mm 1 mps 648 mmHg 80%
    04:00 +20°C° 1 mm 1 mps 648 mmHg 81%
    05:00 +18°C° 0.7 mm 0 mps 648 mmHg 81%
    06:00 +19°C° 0.7 mm 0 mps 649 mmHg 80%
    07:00 +19°C° 0.7 mm 0 mps 649 mmHg 80%
    08:00 +20°C° 0.6 mm 0 mps 649 mmHg 77%
    09:00 +23°C° 0.6 mm 1 mps 650 mmHg 74%
    10:00 +24°C° 0.6 mm 1 mps 651 mmHg 71%
    11:00 +25°C° 0.6 mm 1 mps 650 mmHg 67%
    12:00 +26°C° 0.6 mm 1 mps 650 mmHg 64%
    13:00 +26°C° 0.6 mm 1 mps 649 mmHg 61%
    14:00 +26°C° 0.7 mm 1 mps 648 mmHg 63%
    15:00 +26°C° 0.7 mm 1 mps 648 mmHg 65%
    16:00 +25°C° 0.7 mm 1 mps 647 mmHg 67%
    17:00 +24°C° 0.6 mm 1 mps 647 mmHg 71%
    18:00 +23°C° 0.6 mm 1 mps 648 mmHg 75%
    19:00 +20°C° 0.6 mm 0 mps 648 mmHg 79%
    20:00 +22°C° 0.4 mm 1 mps 648 mmHg 79%
    21:00 +21°C° 0.4 mm 1 mps 649 mmHg 80%
    22:00 +21°C° 0.4 mm 1 mps 649 mmHg 81%
    23:00 +21°C° 0.4 mm 1 mps 649 mmHg 81%

    Day after tomorrow, 23 April, Tuesday

    Time Temperature Precipitation Wind Pressure Humidity
    00:00 +19°C° 0.4 mm 0 mps 649 mmHg 82%
    01:00 +18°C° 0.4 mm 0 mps 648 mmHg 83%
    02:00 +18°C° 0.4 mm 0 mps 648 mmHg 84%
    03:00 +18°C° 0.4 mm 0 mps 648 mmHg 85%
    04:00 +18°C° 0.4 mm 0 mps 647 mmHg 86%
    05:00 +18°C° 0.5 mm 0 mps 648 mmHg 86%
    06:00 +18°C° 0.5 mm 0 mps 648 mmHg 85%
    07:00 +18°C° 0.5 mm 0 mps 649 mmHg 85%
    08:00 +19°C° 0.7 mm 0 mps 649 mmHg 82%
    09:00 +22°C° 0.7 mm 1 mps 650 mmHg 79%
    10:00 +23°C° 0.7 mm 1 mps 650 mmHg 77%
    11:00 +24°C° 0.7 mm 1 mps 649 mmHg 73%
    12:00 +25°C° 0.7 mm 1 mps 649 mmHg 70%
    13:00 +26°C° 0.7 mm 1 mps 648 mmHg 67%
    14:00 +26°C° 0.5 mm 1 mps 648 mmHg 66%
    15:00 +26°C° 0.5 mm 1 mps 647 mmHg 65%
    16:00 +26°C° 0.5 mm 1 mps 647 mmHg 65%
    17:00 +25°C° 0.2 mm 1 mps 647 mmHg 68%
    18:00 +23°C° 0.2 mm 1 mps 647 mmHg 72%
    19:00 +22°C° 0.2 mm 1 mps 647 mmHg 76%
    20:00 +22°C° 0.1 mm 1 mps 648 mmHg 76%
    21:00 +21°C° 0.1 mm 1 mps 648 mmHg 75%
    22:00 +21°C° 0.1 mm 1 mps 649 mmHg 75%
    23:00 +21°C° 0.1 mm 1 mps 649 mmHg 75%

    24 April, Wednesday

    Time Temperature Precipitation Wind Pressure Humidity
    00:00 +21°C° 0.1 mm 1 mps 648 mmHg 76%
    01:00 +19°C° 0.1 mm 0 mps 648 mmHg 76%
    02:00 +18°C° 0.2 mm 0 mps 648 mmHg 78%
    03:00 +18°C° 0.2 mm 0 mps 648 mmHg 79%
    04:00 +18°C° 0.2 mm 0 mps 647 mmHg 81%
    05:00 +18°C° 0.1 mm 0 mps 648 mmHg 80%
    06:00 +19°C° 0.1 mm 0 mps 648 mmHg 80%
    07:00 +19°C° 0.1 mm 0 mps 649 mmHg 79%
    08:00 +23°C° 0.2 mm 1 mps 649 mmHg 73%
    09:00 +24°C° 0.2 mm 1 mps 650 mmHg 67%
    10:00 +26°C° 0.2 mm 1 mps 651 mmHg 62%
    11:00 +26°C° 0.4 mm 1 mps 650 mmHg 58%
    12:00 +27°C° 0.4 mm 1 mps 649 mmHg 55%
    13:00 +28°C° 0.4 mm 1 mps 649 mmHg 51%
    14:00 +28°C° 0.3 mm 1 mps 648 mmHg 51%
    15:00 +28°C° 0.3 mm 1 mps 648 mmHg 51%
    16:00 +28°C° 0.3 mm 1 mps 647 mmHg 51%
    17:00 +26°C° 0.2 mm 1 mps 647 mmHg 57%
    18:00 +24°C° 0.2 mm 1 mps 648 mmHg 64%
    19:00 +23°C° 0.2 mm 1 mps 648 mmHg 70%
    20:00 +23°C° 0.4 mm 1 mps 648 mmHg 71%
    21:00 +22°C° 0.4 mm 1 mps 649 mmHg 72%
    22:00 +22°C° 0.4 mm 1 mps 649 mmHg 72%
    23:00 +22°C° 0.8 mm 1 mps 649 mmHg 75%

    25 April, Thursday

    Time Temperature Precipitation Wind Pressure Humidity
    00:00 +21°C° 0.8 mm 1 mps 648 mmHg 77%
    01:00 +21°C° 0.8 mm 1 mps 648 mmHg 79%
    02:00 +19°C° 0.9 mm 0 mps 648 mmHg 80%
    03:00 +19°C° 0.9 mm 0 mps 648 mmHg 81%
    04:00 +18°C° 0.9 mm 0 mps 648 mmHg 82%
    05:00 +19°C° 0.3 mm 0 mps 648 mmHg 81%
    06:00 +19°C° 0.3 mm 0 mps 649 mmHg 80%
    07:00 +19°C° 0.3 mm 0 mps 649 mmHg 80%
    08:00 +23°C° 0.2 mm 1 mps 650 mmHg 74%
    09:00 +24°C° 0.2 mm 1 mps 650 mmHg 68%
    10:00 +26°C° 0.2 mm 2 mps 651 mmHg 62%
    11:00 +26°C° 0.3 mm 2 mps 650 mmHg 60%
    12:00 +27°C° 0.3 mm 2 mps 650 mmHg 59%
    13:00 +28°C° 0.3 mm 2 mps 649 mmHg 57%
    14:00 +27°C° 0.4 mm 1 mps 648 mmHg 58%
    15:00 +27°C° 0.4 mm 1 mps 648 mmHg 59%
    16:00 +27°C° 0.4 mm 1 mps 647 mmHg 61%
    17:00 +25°C° 0.3 mm 1 mps 647 mmHg 65%
    18:00 +24°C° 0.3 mm 1 mps 648 mmHg 70%
    19:00 +23°C° 0.3 mm 1 mps 648 mmHg 75%
    20:00 +23°C° 0.4 mm 1 mps 648 mmHg 74%
    21:00 +22°C° 0.4 mm 1 mps 649 mmHg 73%
    22:00 +22°C° 0.4 mm 1 mps 649 mmHg 73%
    23:00 +22°C° 0.4 mm 1 mps 649 mmHg 74%

    26 April, Friday

    Time Temperature Precipitation Wind Pressure Humidity
    00:00 +21°C° 0.4 mm 1 mps 648 mmHg 76%
    01:00 +19°C° 0.4 mm 0 mps 648 mmHg 77%
    02:00 +19°C° 0.4 mm 0 mps 648 mmHg 79%
    03:00 +19°C° 0.4 mm 0 mps 648 mmHg 80%
    04:00 +18°C° 0.4 mm 0 mps 648 mmHg 81%
    05:00 +19°C° 0.3 mm 0 mps 648 mmHg 80%
    06:00 +19°C° 0.3 mm 0 mps 649 mmHg 78%
    07:00 +20°C° 0.3 mm 0 mps 649 mmHg 77%
    08:00 +23°C° 0.2 mm 1 mps 650 mmHg 71%
    09:00 +24°C° 0.2 mm 1 mps 650 mmHg 66%
    10:00 +26°C° 0.2 mm 2 mps 650 mmHg 61%
    11:00 +26°C° 0.3 mm 2 mps 650 mmHg 59%
    12:00 +27°C° 0.3 mm 2 mps 649 mmHg 58%
    13:00 +27°C° 0.3 mm 2 mps 649 mmHg 57%
    14:00 +27°C° 0.4 mm 2 mps 648 mmHg 60%
    15:00 +26°C° 0.4 mm 1 mps 647 mmHg 63%
    16:00 +25°C° 0.4 mm 1 mps 647 mmHg 66%
    17:00 +24°C° 0.2 mm 1 mps 647 mmHg 70%
    18:00 +23°C° 0.2 mm 1 mps 647 mmHg 73%
    19:00 +22°C° 0.2 mm 1 mps 648 mmHg 77%
    20:00 +22°C° 0.2 mm 1 mps 648 mmHg 77%
    21:00 +22°C° 0.2 mm 1 mps 648 mmHg 76%
    22:00 +22°C° 0.2 mm 1 mps 649 mmHg 76%
    23:00 +22°C° 0.3 mm 1 mps 648 mmHg 76%
    Show more